Theta_e
332 327 315 312 303 301 296 298 302 302 304 308 309 306 306 310 308 302 327 334 338 341 345 345 344 344 344 344 345 346 347 345 342 342 341 340 340 339 337 338 341 340 338 336 336 338 337 336 334
327 322 314 306 299 294 296 301 300 304 309 313 313 313 311 309 320 322 327 335 340 343 344 344 342 343 344 344 344 344 346 347 343 341 340 339 338 338 337 336 338 337 336 336 335 337 337 336 334
324 315 308 301 296 295 297 302 303 307 311 309 312 315 314 313 320 325 329 337 341 342 343 342 342 344 343 343 343 343 343 344 345 342 340 339 338 337 337 338 335 336 336 336 335 336 337 336 334
317 315 307 299 297 300 302 304 306 307 309 310 312 308 316 323 324 328 334 340 340 341 341 340 343 344 343 343 343 343 342 342 345 344 341 339 339 338 338 336 335 337 336 334 334 333 334 334 333
315 310 299 297 298 301 304 306 307 307 308 309 311 307 311 323 328 332 336 338 338 339 340 342 342 343 343 342 341 342 341 341 344 344 343 341 340 339 338 338 337 335 335 334 333 335 334 334 333
307 309 299 295 300 303 305 307 307 307 308 309 310 308 311 323 328 331 336 337 337 338 338 341 336 338 340 341 340 339 340 340 341 343 342 341 341 339 339 338 337 334 333 333 332 334 333 332 332
306 302 300 300 301 301 303 307 306 307 307 308 313 307 314 320 325 332 334 338 337 338 337 339 340 337 334 336 336 337 337 337 337 338 338 338 338 338 337 337 337 336 334 333 333 333 332 331 331
307 304 300 300 300 302 304 305 307 308 307 314 316 309 309 319 327 331 333 335 334 337 336 336 338 338 338 339 332 333 334 334 335 334 332 330 331 333 334 332 335 337 336 334 333 332 331 330 329
310 298 296 299 300 304 305 303 306 308 310 313 317 314 318 322 327 328 327 328 330 333 336 336 337 336 336 336 333 330 330 331 331 331 328 327 330 329 329 329 331 335 335 335 334 333 332 332 328
303 296 297 303 305 305 304 303 304 305 307 310 314 319 320 321 324 323 322 323 326 328 332 335 335 335 335 335 335 334 334 335 334 333 331 330 329 329 328 324 325 330 330 332 335 334 332 328 328
302 296 299 305 307 307 306 303 308 303 302 307 310 316 319 319 321 323 324 326 327 329 330 332 333 335 334 334 334 333 333 333 333 332 330 328 327 327 327 327 327 329 323 331 332 332 331 329 326
298 303 303 306 305 304 303 307 306 303 307 309 311 318 319 318 318 320 322 324 326 328 330 332 333 333 333 334 333 333 332 332 332 331 330 328 326 326 326 326 326 326 327 329 330 330 328 327 325
301 301 305 304 303 303 304 302 304 305 309 310 317 318 318 319 319 321 321 322 323 326 329 332 333 332 332 331 332 331 331 332 332 331 329 327 326 325 325 325 325 325 325 325 326 328 328 327 326
301 301 301 303 303 303 301 300 304 304 308 308 309 314 317 318 319 320 320 322 321 322 326 330 331 332 332 331 331 331 331 331 331 331 330 327 326 325 324 324 324 324 324 324 324 324 324 325 324
303 298 300 300 302 302 302 297 300 304 305 305 307 308 311 317 319 319 321 321 323 323 324 325 329 332 332 331 331 331 331 330 330 330 329 328 326 325 325 324 323 323 324 324 323 323 323 322 322
297 296 291 296 301 302 299 290 297 302 303 303 303 303 304 305 307 313 319 321 322 323 322 323 325 329 332 332 332 331 331 330 331 330 329 328 327 326 324 324 324 325 324 323 322 322 321 321 321
293 286 290 293 300 298 298 294 300 301 301 301 301 301 301 302 304 306 306 308 315 321 323 322 322 324 329 331 333 332 332 330 330 330 329 328 327 327 326 325 325 324 323 323 322 321 321 321 320
287 289 290 290 295 295 294 293 298 300 299 299 300 301 302 302 305 307 308 309 308 310 317 321 322 322 324 328 331 331 330 330 331 330 329 328 327 327 325 326 325 323 323 322 321 321 322 319 320
291 290 288 291 296 293 292 291 294 298 296 297 298 297 299 302 306 306 307 308 308 307 308 312 319 321 321 322 325 326 325 327 327 329 329 328 327 327 326 326 325 323 323 322 321 321 318 317 317
292 289 287 292 295 293 291 291 296 298 298 299 299 300 300 301 302 304 305 305 305 306 307 308 313 319 320 321 322 325 326 327 329 329 328 328 328 327 325 325 325 323 322 322 321 319 318 317 315
291 289 288 289 292 292 288 286 287 291 293 296 298 300 301 300 301 302 302 303 303 302 304 306 309 315 319 321 320 321 322 321 323 325 326 327 327 327 326 326 325 324 322 321 321 320 318 317 315
285 292 292 292 288 282 289 279 286 289 290 292 295 295 295 296 297 297 298 298 300 302 303 304 306 310 317 319 319 319 319 319 322 324 325 325 326 326 326 325 325 325 324 322 322 321 320 318 316
288 293 291 290 287 285 283 283 284 287 288 291 292 293 294 294 296 296 297 298 298 299 300 305 307 308 315 317 319 318 318 319 320 320 320 322 323 325 325 325 325 324 324 324 323 322 320 319 318
295 292 291 289 287 278 282 282 280 284 287 289 291 293 295 294 295 295 296 297 298 299 300 301 302 301 307 315 316 317 317 317 318 318 318 318 320 322 323 323 324 324 324 323 323 322 322 320 319
293 287 279 278 279 275 281 281 282 288 290 290 292 293 293 295 295 296 297 298 298 298 300 301 301 299 300 301 302 304 309 314 316 317 317 317 318 318 320 322 322 322 323 323 323 323 321 320 319
289 287 277 270 273 275 282 279 283 289 292 293 293 294 294 294 294 296 297 295 295 296 296 297 298 297 297 297 298 299 300 301 303 304 305 310 316 320 321 321 321 322 322 322 323 322 321 321 320
287 285 287 279 277 276 278 281 286 289 290 291 291 292 294 294 293 296 294 293 293 293 293 293 294 294 294 294 295 297 298 298 298 300 301 302 304 306 308 313 320 322 322 322 321 320 320 320 320
288 290 283 284 271 269 275 278 281 286 288 288 290 291 291 291 294 294 293 292 292 291 291 292 292 292 292 293 294 295 296 296 297 299 299 300 301 303 304 306 308 313 320 321 321 321 321 320 320
286 285 285 284 280 274 271 276 284 286 287 289 290 291 290 293 294 292 291 291 291 290 289 289 290 290 291 292 293 293 293 293 294 295 295 296 298 298 299 301 304 307 310 315 316 317 319 320 320
290 286 285 279 275 278 278 279 286 288 289 290 290 291 290 294 294 291 290 290 290 289 288 288 288 289 289 290 291 290 291 291 291 291 292 293 294 296 297 299 300 302 305 309 314 314 316 317 317
Wind_Speed
9 6 1 5 5 6 1 3 1 3 0 1 4 4 3 2 2 1 3 6 9 12 11 13 12 14 13 12 11 10 11 14 14 13 12 12 12 12 12 12 9 11 12 12 11 12 14 13 12
7 2 4 3 6 3 2 2 5 4 4 5 4 2 3 1 1 2 6 5 10 11 10 10 10 12 12 11 9 7 8 13 13 14 13 12 12 11 11 11 11 11 12 10 11 10 10 11 10
4 4 4 5 3 3 4 4 5 3 5 2 3 2 3 2 1 8 1 9 11 10 10 10 10 12 11 10 9 7 4 5 14 13 12 12 12 11 10 10 11 10 9 10 9 10 9 10 9
5 5 4 5 3 1 1 4 5 5 1 2 3 3 1 1 5 6 9 14 12 9 9 9 10 11 10 8 6 6 4 2 13 14 12 11 9 8 9 9 9 9 8 8 9 8 8 8 7
5 4 5 4 3 3 2 2 5 3 3 3 3 3 2 1 2 7 13 12 15 10 9 10 10 10 9 8 5 3 4 2 5 11 12 9 10 9 9 7 6 8 7 7 7 7 6 5 6
5 3 5 2 4 4 1 3 3 1 1 1 2 5 3 1 4 8 13 14 10 9 8 8 9 10 11 10 8 6 6 2 1 5 9 10 8 9 7 7 6 6 5 5 5 5 3 3 1
6 4 4 3 2 3 1 4 2 2 2 2 4 3 1 2 5 9 9 11 11 11 9 7 8 8 8 8 7 8 7 5 4 1 6 6 7 9 8 7 6 4 5 3 2 3 1 2 3
5 5 4 2 2 2 1 4 2 3 3 2 1 1 1 2 8 8 8 7 8 8 8 9 8 8 8 8 9 10 9 7 6 4 2 4 1 1 8 6 5 6 5 4 3 2 2 1 3
3 5 3 5 6 3 2 3 1 1 4 1 1 1 1 6 9 8 6 6 7 6 8 7 9 8 8 7 7 8 8 9 8 7 7 5 3 1 2 6 7 6 5 5 4 3 2 2 1
4 4 10 4 4 4 4 4 6 3 3 2 2 2 4 7 7 11 10 11 10 10 9 9 8 9 9 7 7 7 6 5 6 6 7 5 5 4 2 3 4 8 8 7 6 5 3 1 2
2 5 4 3 2 1 3 2 0 5 3 5 6 4 6 5 7 9 10 11 13 11 9 9 11 9 9 8 6 4 4 4 5 8 6 5 4 4 3 2 2 3 6 4 5 4 3 4 3
2 2 3 0 2 2 3 0 1 2 2 1 2 3 7 9 10 11 11 11 9 11 13 12 12 8 10 6 6 7 6 6 5 7 8 5 4 5 5 4 4 4 4 5 6 4 5 6 6
3 2 3 1 1 2 2 1 2 5 5 2 4 4 7 7 8 7 7 7 8 12 13 13 13 11 8 10 7 7 8 7 8 7 8 7 6 6 6 6 5 5 5 5 5 5 5 6 6
1 1 0 2 1 2 2 1 2 6 3 6 4 6 6 7 11 4 7 11 11 11 13 12 14 13 10 9 12 9 8 8 8 8 8 10 8 7 7 6 7 6 6 6 6 7 7 7 7
2 2 4 2 1 4 3 3 11 4 2 3 5 5 6 8 6 12 11 11 10 10 9 12 13 13 14 15 11 10 9 8 9 9 11 12 10 10 9 8 7 8 7 9 7 7 7 7 7
4 5 2 3 1 2 4 7 6 4 5 9 7 6 7 10 10 10 10 9 9 9 10 11 9 13 14 14 11 9 9 9 9 9 9 13 13 13 11 9 9 9 7 7 8 8 8 8 8
3 4 4 5 2 2 4 3 7 3 2 6 7 7 7 9 10 10 10 10 10 11 11 10 11 13 14 12 9 11 12 9 8 9 9 12 13 13 12 9 9 10 8 8 8 8 9 9 9
6 3 2 4 1 2 4 7 12 10 3 9 10 12 11 11 18 9 9 8 8 8 8 9 8 12 12 8 8 7 9 8 8 9 9 12 11 14 12 10 10 9 9 8 8 11 9 9 10
6 4 2 2 4 2 7 6 10 14 7 11 13 9 13 15 16 7 8 9 7 7 7 9 8 10 8 6 7 8 10 9 9 9 12 13 12 13 12 9 10 10 11 12 12 11 12 9 6
4 3 2 5 2 3 6 13 18 19 17 17 19 17 15 13 9 10 7 6 7 7 8 7 10 8 10 8 4 4 5 6 7 7 11 13 13 13 12 11 10 11 9 11 11 11 7 7 7
4 5 3 5 6 4 7 7 5 4 5 6 12 17 12 11 13 9 6 8 4 7 8 8 9 9 9 10 4 2 1 0 3 7 7 9 12 12 12 13 11 10 10 9 11 11 13 9 6
3 2 3 4 4 4 5 10 4 7 9 7 11 7 8 8 7 6 8 6 6 7 5 6 6 6 7 9 9 9 8 7 6 4 5 6 11 12 12 13 13 12 8 11 11 10 11 10 10
5 5 5 2 3 5 2 4 7 4 8 11 6 7 7 6 5 7 6 4 3 4 4 3 1 1 2 5 6 6 5 4 2 2 5 7 7 11 12 12 12 12 10 12 13 11 12 11 10
5 4 4 2 1 5 7 8 4 5 6 4 2 1 4 6 4 4 4 5 5 5 6 5 8 8 6 3 4 5 6 5 5 3 4 4 5 6 10 10 10 11 11 12 12 13 14 12 11
4 7 1 1 3 7 2 4 6 10 7 7 9 10 2 2 3 3 5 6 6 6 6 6 7 9 8 8 8 6 4 3 5 5 5 6 5 5 8 10 10 10 12 12 12 12 12 13 12
10 6 6 9 5 4 2 9 7 8 9 6 7 8 4 4 5 4 5 4 5 5 6 6 7 7 8 8 7 6 6 4 3 4 4 4 5 6 7 8 10 10 11 11 12 10 11 12 12
5 7 5 5 1 2 5 7 9 11 10 5 7 6 4 7 7 6 4 4 4 5 6 6 6 6 7 7 6 6 6 6 6 6 5 4 6 6 8 9 10 10 11 12 12 10 11 11 12
6 7 3 3 4 6 5 6 8 7 7 3 7 5 3 5 6 5 4 3 3 4 4 6 7 7 7 7 7 6 7 7 7 6 8 9 9 9 10 10 9 10 10 11 12 11 12 12 10
4 5 4 5 5 5 2 7 7 7 3 6 6 5 6 6 6 6 5 4 4 4 4 5 6 7 7 7 6 7 7 8 7 7 8 8 9 9 10 10 10 10 10 10 12 14 14 13 12
8 7 8 5 4 4 2 11 3 6 2 5 6 7 6 8 8 6 5 4 3 4 4 5 5 6 7 6 6 7 7 7 7 7 8 9 9 8 9 10 10 11 11 11 11 13 11 12 13
Wind_Direction
324 324 84 45 61 67 111 195 144 128 167 214 107 143 191 73 164 189 332 174 150 146 149 146 145 142 145 147 146 145 146 141 134 130 126 124 125 118 120 114 108 115 118 107 106 105 107 99 96
318 347 40 82 84 83 268 204 168 200 177 136 110 106 68 73 109 78 123 196 152 144 142 144 136 141 145 150 150 148 147 148 139 135 138 134 130 129 127 122 125 130 122 113 101 105 128 109 102
354 42 72 82 100 138 172 199 163 178 157 179 103 22 145 136 154 160 219 148 142 140 142 144 141 149 153 155 156 156 145 147 145 138 142 141 141 138 136 133 137 136 130 117 109 97 104 108 105
6 15 46 73 73 341 262 175 163 136 165 221 133 83 326 329 151 169 143 145 146 143 143 146 148 153 155 162 165 164 163 23 153 142 145 148 139 140 140 145 143 145 143 135 115 106 106 119 116
28 57 47 69 355 314 297 154 156 160 156 156 173 183 163 154 10 137 145 156 159 150 153 156 153 153 153 156 164 145 137 322 120 145 150 151 146 149 146 142 141 153 157 151 134 118 104 103 128
38 79 52 36 325 320 7 143 136 165 128 139 94 145 201 122 144 160 153 158 160 158 157 160 161 160 160 163 166 169 165 219 268 162 152 151 158 147 142 147 152 165 170 172 157 125 106 82 49
103 73 153 168 303 338 171 157 144 184 149 244 148 134 171 224 178 157 151 155 154 164 161 167 170 172 168 167 181 176 169 176 196 281 169 145 166 163 163 148 160 168 180 176 174 145 110 54 33
104 90 121 186 170 234 224 173 181 157 220 95 159 219 166 192 143 133 134 138 165 173 170 172 175 175 180 183 177 179 185 192 199 218 237 136 174 182 176 175 181 173 178 181 184 221 216 134 56
133 75 174 198 161 212 186 156 221 121 122 18 324 154 346 117 129 126 139 166 182 190 184 185 183 184 183 188 194 191 193 189 194 196 207 184 166 178 127 172 195 191 186 180 188 226 271 308 67
88 128 203 199 186 184 173 177 168 142 131 242 287 116 101 132 158 161 174 185 195 198 202 195 198 196 190 194 195 200 201 205 199 196 203 205 194 192 185 167 195 207 196 191 199 219 228 257 284
128 184 206 228 170 150 151 127 87 136 222 212 204 182 151 161 179 185 192 196 199 202 207 204 209 204 198 199 196 199 202 202 206 207 207 214 208 204 200 228 230 232 214 198 199 197 210 224 227
148 211 176 297 42 112 137 349 166 197 272 44 293 158 161 179 198 202 207 202 194 201 213 212 211 204 210 203 201 201 203 208 208 210 208 207 212 221 219 215 220 219 222 227 212 209 205 222 222
161 202 191 294 6 329 336 243 262 249 209 109 62 147 185 194 219 224 221 224 204 212 213 214 212 210 204 209 207 202 206 206 212 212 211 204 213 216 219 227 226 225 226 229 231 228 229 241 251
143 180 3 15 294 276 232 324 134 255 178 219 223 228 216 218 223 225 223 230 218 222 216 208 211 213 212 213 215 208 207 207 207 214 213 208 213 218 220 226 230 236 229 232 234 234 236 239 241
89 81 2 275 215 253 163 259 225 205 154 194 224 239 245 238 244 232 233 233 227 227 219 207 211 206 214 218 216 214 210 202 209 210 207 209 205 213 218 226 231 233 231 237 239 242 246 253 253
110 51 94 286 95 285 133 269 273 217 208 260 253 258 264 260 251 251 249 242 240 238 221 217 208 204 210 215 214 216 210 208 215 212 209 210 210 210 211 219 226 226 226 230 235 237 242 248 253
351 186 198 312 214 3 177 259 280 48 188 272 295 281 251 265 265 254 242 242 241 234 235 227 212 210 211 217 215 213 216 213 216 213 213 212 212 213 215 219 224 220 225 227 234 239 240 248 247
192 161 210 201 265 104 277 259 280 292 253 247 258 268 280 270 264 255 242 236 238 242 238 238 217 218 211 207 208 215 222 220 217 216 217 212 212 212 213 223 223 211 222 226 226 236 232 243 252
124 125 155 264 273 255 241 264 271 279 284 277 275 244 251 256 263 253 244 244 237 243 235 230 216 220 193 191 201 221 225 227 229 223 222 215 215 214 215 222 219 210 220 226 223 228 237 239 237
125 145 254 268 261 220 273 279 273 267 260 245 253 256 247 249 262 264 259 236 230 244 230 234 225 205 200 200 196 192 190 222 226 222 222 217 217 214 214 218 223 216 222 226 223 215 225 232 189
232 237 235 243 323 266 318 277 283 290 270 246 249 254 267 253 261 268 268 261 266 238 239 235 227 210 201 198 165 137 148 241 199 220 224 223 221 217 214 219 222 222 215 226 225 218 217 238 205
227 255 265 283 348 261 45 297 297 295 298 267 265 277 274 280 273 269 269 267 256 268 261 244 242 216 205 185 189 191 201 209 222 221 220 217 210 217 216 220 221 221 216 223 227 221 221 221 234
207 159 171 205 254 318 157 253 282 306 269 265 305 312 317 290 304 311 299 274 57 29 22 6 36 36 187 179 203 203 220 240 258 223 230 225 217 218 221 223 224 224 223 229 230 221 216 219 226
158 105 41 82 111 279 201 178 253 220 216 269 234 206 47 16 18 31 52 75 65 46 52 48 64 46 42 97 185 201 225 245 264 266 256 250 240 233 231 230 226 226 227 230 230 230 227 223 229
146 116 91 280 205 238 28 210 245 255 235 236 266 280 354 281 119 89 81 70 56 45 39 51 56 50 37 47 47 41 26 307 279 288 282 278 260 242 236 227 231 231 231 233 234 234 231 230 228
182 168 158 198 194 268 64 240 247 226 252 243 258 260 277 219 156 130 104 86 74 57 43 48 55 57 39 41 35 32 27 15 356 352 330 310 298 282 257 236 234 238 242 240 240 237 235 233 232
174 198 165 104 61 342 238 285 284 275 285 192 257 271 222 183 171 159 121 86 72 60 48 44 49 51 41 36 29 28 22 15 357 344 336 333 330 330 324 308 282 249 239 235 233 235 239 237 237
155 155 163 157 202 244 264 263 233 290 284 347 322 295 199 178 164 140 124 95 59 52 46 41 41 43 30 27 24 20 15 10 1 360 3 358 348 337 325 319 313 303 274 251 241 247 247 239 239
151 184 200 169 174 197 270 260 220 244 278 274 302 291 212 188 179 169 157 147 120 84 64 61 48 41 31 21 16 17 13 10 8 11 4 353 338 341 333 328 323 318 307 293 270 261 255 246 242
213 191 180 160 230 238 205 252 252 198 124 270 263 290 188 183 190 170 171 153 117 96 67 61 50 45 29 13 22 25 15 11 16 8 1 353 344 342 340 343 339 333 328 320 302 280 264 253 254